IRNSS-1G

Last updated on Thu Jul 03 2025 00:02:47 GMT+0000 (Coordinated Universal Time)

1 41469U 16027A 25183.63069517 -.00000330 00000+0 00000+0 0 9991 2 41469 4.3386 106.5437 0005935 359.0796 171.6929 1.00264216 33673
UTC large
Height (km)
Speed (km/s)
/
Latitude / Longitude
Inclination (degrees)
Orbital Period (minutes)
Azimuth
Elevation
Range (km)
Doppler Factor

Next 0 passes for location: London (51.5072 / 0.1276)

Sorry there are no passes over London.